| time (UTC) | temp F | wind direction | speed MPH | gust MPH | rain 1hr in | rain 24hr in | rain mn in | humidity % | barometer mb |
| 20260509174527 | 62 | 5 | 1.0 | 4.0 | 0.00 | 0.00 | 0.00 | 35 | 1021.6 |
| 20260509173024 | 61 | 165 | 2.0 | 9.0 | 0.00 | 0.00 | 0.00 | 39 | 1021.6 |
| 20260509171526 | 59 | 223 | 4.0 | 6.0 | 0.00 | 0.00 | 0.00 | 38 | 1021.6 |
| 20260509170008 | 59 | 96 | 4.0 | 7.0 | 0.00 | 0.00 | 0.00 | 37 | 1021.7 |
| 20260509164507 | 58 | 5 | 3.0 | 6.0 | 0.00 | 0.00 | 0.00 | 36 | 1021.8 |
| 20260509163011 | 59 | 224 | 3.0 | 5.0 | 0.00 | 0.00 | 0.00 | 33 | 1021.8 |
| 20260509161507 | 58 | 97 | 2.0 | 4.0 | 0.00 | 0.00 | 0.00 | 38 | 1021.7 |
| 20260509160004 | 58 | 136 | 1.0 | 7.0 | 0.00 | 0.00 | 0.00 | 35 | 1021.7 |
| 20260509154522 | 57 | 117 | 1.0 | 5.0 | 0.00 | 0.00 | 0.00 | 36 | 1021.7 |
| 20260509153015 | 57 | 88 | 1.0 | 6.0 | 0.00 | 0.00 | 0.00 | 37 | 1021.7 |
| 20260509151516 | 58 | 52 | 1.0 | 4.0 | 0.00 | 0.00 | 0.00 | 37 | 1021.6 |
| 20260509150018 | 57 | 97 | 1.0 | 3.0 | 0.00 | 0.00 | 0.00 | 35 | 1021.6 |
| 20260509144513 | 56 | 190 | 3.0 | 6.0 | 0.00 | 0.00 | 0.00 | 37 | 1021.5 |
| 20260509143015 | 56 | 258 | 2.0 | 4.0 | 0.00 | 0.00 | 0.00 | 40 | 1021.5 |
| 20260509140004 | 54 | 146 | 1.0 | 4.0 | 0.00 | 0.00 | 0.00 | 43 | 1021.2 |
| 20260509134518 | 54 | 170 | 0.0 | 6.0 | 0.00 | 0.00 | 0.00 | 43 | 1020.9 |
| 20260509133021 | 53 | 242 | 3.0 | 10.0 | 0.00 | 0.00 | 0.00 | 43 | 1020.6 |
| 20260509131529 | 52 | 257 | 1.0 | 6.0 | 0.00 | 0.00 | 0.00 | 45 | 1020.3 |
| 20260509130023 | 51 | 236 | 1.0 | 4.0 | 0.00 | 0.00 | 0.00 | 47 | 1020.1 |
| 20260509124527 | 49 | 119 | 1.0 | 8.0 | 0.00 | 0.00 | 0.00 | 48 | 1019.9 |
| 20260509123009 | 49 | 117 | 0.0 | 4.0 | 0.00 | 0.00 | 0.00 | 48 | 1020.0 |
| 20260509121511 | 49 | 132 | 2.0 | 6.0 | 0.00 | 0.00 | 0.00 | 46 | 1019.8 |
| 20260509120033 | 49 | 119 | 1.0 | 10.0 | 0.00 | 0.00 | 0.00 | 46 | 1019.8 |
| 20260509114523 | 49 | 160 | 1.0 | 7.0 | 0.00 | 0.00 | 0.00 | 47 | 1019.7 |
| 20260509113019 | 49 | 133 | 1.0 | 3.0 | 0.00 | 0.00 | 0.00 | 47 | 1019.5 |
| 20260509111529 | 51 | 302 | 2.0 | 11.0 | 0.00 | 0.00 | 0.00 | 46 | 1019.4 |
| 20260509104518 | 51 | 231 | 0.0 | 6.0 | 0.00 | 0.00 | 0.00 | 44 | 1019.2 |
| 20260509103011 | 51 | 196 | 0.0 | 4.0 | 0.00 | 0.00 | 0.00 | 43 | 1019.4 |
| 20260509101509 | 51 | 225 | 4.0 | 6.0 | 0.00 | 0.00 | 0.00 | 42 | 1019.4 |
| 20260509100031 | 51 | 244 | 0.0 | 3.0 | 0.00 | 0.00 | 0.00 | 44 | 1019.4 |
| 20260509094524 | 51 | 190 | 0.0 | 2.0 | 0.00 | 0.00 | 0.00 | 45 | 1019.2 |
| 20260509093023 | 51 | 272 | 2.0 | 7.0 | 0.00 | 0.00 | 0.00 | 45 | 1019.2 |
| 20260509091523 | 51 | 172 | 1.0 | 3.0 | 0.00 | 0.00 | 0.00 | 45 | 1019.1 |
| 20260509084517 | 51 | 230 | 1.0 | 3.0 | 0.00 | 0.00 | 0.00 | 42 | 1018.8 |
| 20260509081526 | 52 | 225 | 1.0 | 4.0 | 0.00 | 0.00 | 0.00 | 42 | 1018.6 |
| 20260509080028 | 52 | 225 | 2.0 | 6.0 | 0.00 | 0.00 | 0.00 | 40 | 1018.7 |
| 20260509074526 | 53 | 250 | 2.0 | 8.0 | 0.00 | 0.00 | 0.00 | 39 | 1018.7 |
| 20260509073025 | 53 | 219 | 3.0 | 8.0 | 0.00 | 0.00 | 0.00 | 38 | 1018.4 |
| 20260509071522 | 52 | 126 | 1.0 | 4.0 | 0.00 | 0.00 | 0.00 | 42 | 1018.3 |
| 20260509070023 | 50 | 202 | 0.0 | 4.0 | 0.00 | 0.00 | 0.00 | 44 | 1018.3 |
| 20260509064520 | 49 | 142 | 2.0 | 6.0 | 0.00 | 0.00 | 0.00 | 44 | 1018.3 |
| 20260509063015 | 50 | 132 | 3.0 | 5.0 | 0.00 | 0.00 | 0.00 | 43 | 1018.2 |
| 20260509061533 | 51 | 136 | 1.0 | 3.0 | 0.00 | 0.00 | 0.00 | 41 | 1018.2 |
| 20260509060025 | 51 | 200 | 2.0 | 4.0 | 0.00 | 0.00 | 0.00 | 40 | 1018.1 |
| 20260509054528 | 51 | 136 | 4.0 | 5.0 | 0.00 | 0.00 | 0.00 | 40 | 1017.9 |
| 20260509053027 | 50 | 132 | 3.0 | 10.0 | 0.00 | 0.00 | 0.00 | 40 | 1017.9 |
| 20260509051526 | 51 | 115 | 4.0 | 6.0 | 0.00 | 0.00 | 0.00 | 40 | 1018.0 |
| 20260509050029 | 52 | 153 | 5.0 | 8.0 | 0.00 | 0.00 | 0.00 | 39 | 1017.8 |
| 20260509044521 | 56 | 130 | 1.0 | 3.0 | 0.00 | 0.00 | 0.00 | 32 | 1017.8 |
| 20260509043019 | 57 | 302 | 1.0 | 5.0 | 0.00 | 0.00 | 0.00 | 33 | 1017.9 |
| 20260509041528 | 57 | 257 | 1.0 | 4.0 | 0.00 | 0.00 | 0.00 | 32 | 1017.7 |
| 20260509040017 | 58 | 333 | 3.0 | 8.0 | 0.00 | 0.00 | 0.00 | 31 | 1017.6 |
| 20260509034529 | 58 | 232 | 4.0 | 7.0 | 0.00 | 0.00 | 0.00 | 30 | 1017.3 |
| 20260509033026 | 59 | 238 | 2.0 | 9.0 | 0.00 | 0.00 | 0.00 | 29 | 1016.9 |
| 20260509031526 | 60 | 306 | 1.0 | 9.0 | 0.00 | 0.00 | 0.00 | 26 | 1016.6 |
| 20260509030026 | 61 | 306 | 3.0 | 7.0 | 0.00 | 0.00 | 0.00 | 24 | 1016.3 |
| 20260509024525 | 61 | 240 | 5.0 | 18.0 | 0.00 | 0.00 | 0.00 | 23 | 1016.2 |
| 20260509023021 | 62 | 248 | 6.0 | 9.0 | 0.00 | 0.00 | 0.00 | 22 | 1016.0 |
| 20260509021521 | 63 | 248 | 3.0 | 9.0 | 0.00 | 0.00 | 0.00 | 21 | 1015.9 |
| 20260509020008 | 63 | 221 | 4.0 | 13.0 | 0.00 | 0.00 | 0.00 | 21 | 1015.7 |
| 20260509014512 | 65 | 275 | 10.0 | 16.0 | 0.00 | 0.00 | 0.00 | 18 | 1015.4 |
| 20260509013011 | 65 | 248 | 7.0 | 16.0 | 0.00 | 0.00 | 0.00 | 17 | 1015.3 |
| 20260509011508 | 65 | 248 | 10.0 | 15.0 | 0.00 | 0.00 | 0.00 | 18 | 1015.4 |
| 20260509010025 | 64 | 223 | 12.0 | 17.0 | 0.00 | 0.00 | 0.00 | 17 | 1015.3 |
| 20260509004517 | 65 | 281 | 8.0 | 12.0 | 0.00 | 0.00 | 0.00 | 19 | 1015.3 |
| 20260509003005 | 65 | 223 | 11.0 | 15.0 | 0.00 | 0.00 | 0.00 | 17 | 1015.3 |
| 20260509001515 | 65 | 233 | 4.0 | 8.0 | 0.00 | 0.00 | 0.00 | 24 | 1015.4 |
| 20260509000011 | 65 | 244 | 6.0 | 9.0 | 0.00 | 0.00 | 0.00 | 25 | 1015.4 |
| 20260508234521 | 65 | 253 | 2.0 | 3.0 | 0.00 | 0.00 | 0.00 | 26 | 1015.5 |
| 20260508233016 | 65 | 218 | 5.0 | 9.0 | 0.00 | 0.00 | 0.00 | 25 | 1015.5 |
| 20260508231516 | 65 | 235 | 4.0 | 11.0 | 0.00 | 0.00 | 0.00 | 26 | 1015.7 |
| 20260508230025 | 65 | 284 | 3.0 | 7.0 | 0.00 | 0.00 | 0.00 | 27 | 1015.6 |
| 20260508224507 | 66 | 244 | 4.0 | 6.0 | 0.00 | 0.00 | 0.00 | 26 | 1015.5 |
| 20260508223013 | 66 | 236 | 6.0 | 11.0 | 0.00 | 0.00 | 0.00 | 25 | 1015.7 |
| 20260508221535 | 66 | 248 | 9.0 | 17.0 | 0.00 | 0.00 | 0.00 | 22 | 1015.4 |
| 20260508220017 | 67 | 263 | 11.0 | 17.0 | 0.00 | 0.00 | 0.00 | 22 | 1015.4 |
| 20260508214518 | 67 | 246 | 12.0 | 15.0 | 0.00 | 0.00 | 0.00 | 24 | 1015.3 |
| 20260508213023 | 68 | 248 | 9.0 | 13.0 | 0.00 | 0.00 | 0.00 | 28 | 1015.3 |
| 20260508211516 | 69 | 250 | 6.0 | 9.0 | 0.00 | 0.00 | 0.00 | 29 | 1015.3 |
| 20260508210015 | 69 | 254 | 3.0 | 9.0 | 0.00 | 0.00 | 0.00 | 31 | 1015.3 |
| 20260508204515 | 69 | 279 | 3.0 | 12.0 | 0.00 | 0.00 | 0.00 | 30 | 1015.4 |
| 20260508203019 | 69 | 232 | 5.0 | 9.0 | 0.00 | 0.00 | 0.00 | 31 | 1015.2 |
| 20260508201521 | 69 | 235 | 3.0 | 9.0 | 0.00 | 0.00 | 0.00 | 36 | 1015.2 |
| 20260508200019 | 68 | 263 | 4.0 | 8.0 | 0.00 | 0.00 | 0.00 | 35 | 1015.2 |
| 20260508194520 | 68 | 232 | 3.0 | 7.0 | 0.00 | 0.00 | 0.00 | 35 | 1015.3 |
| 20260508193021 | 67 | 344 | 3.0 | 8.0 | 0.00 | 0.00 | 0.00 | 34 | 1015.4 |
| 20260508191520 | 67 | 222 | 3.0 | 6.0 | 0.00 | 0.00 | 0.00 | 40 | 1015.5 |
| 20260508190023 | 67 | 257 | 3.0 | 5.0 | 0.00 | 0.00 | 0.00 | 36 | 1015.5 |
| 20260508184517 | 68 | 219 | 1.0 | 5.0 | 0.00 | 0.00 | 0.00 | 35 | 1015.6 |
| 20260508183022 | 67 | 230 | 5.0 | 10.0 | 0.00 | 0.00 | 0.00 | 37 | 1015.8 |
| 20260508181522 | 67 | 11 | 1.0 | 3.0 | 0.00 | 0.00 | 0.00 | 39 | 1015.9 |
| 20260508180024 | 66 | 327 | 2.0 | 8.0 | 0.00 | 0.00 | 0.00 | 37 | 1016.0 |